Re: [閒聊] 韓國主播是播到哭了嗎?(影片)

看板 : 英雄聯盟
作者 : daemansalam
發文日期 : 2018年10月12日 00:09
※ 引述《an80174 (seveneleven)》之銘言: : RNG VS GEN G : 最後一波團戰 : 抓到一個對方閃現失誤 : 結果出乎意料GG比賽 : 韓國主播激動一邊喊著Letme 一邊好像哭了 : 看到影片倒是蠻好笑的 : https://youtu.be/cyAxreKy3s0
認真回 主播 : seongkae 賽評 : cloudtemplar, kangqui kangqui : CUVEE又去偷拆了,那麼(GEN.G)要擋一下中路吧 cloudtemplar : 哦?哦?(賽恩開了大絕) seongkae : 衝過來了X3,會到哪裡了? (cloudtemplar看到賽恩撞到剎雅開始大叫) seongkae : 衝到這裡把人敲起來了嗎? kangqui : 不是啊,這到底是什麼? seongkae : (RULER)一下子就倒下了吧 kangqui : 哇! LETME (cloudtemplar持續哀號中) cloudtemplar : CUVEE拜託你了 seongkae : CUVEE在偷拆, CUVEE可以拆到哪裡呢? cloudtemplar&kangqui : 但是對面要結束了,遊戲要結束了,必須要過來擋吧~ seongkae : (RNG)推掉中路了,中路水晶兵營爆了,(看到眼上TP亮起來後)要再過來嗎? kangqui : GG了,一波了 cloudtemplar : 必須要擋下啊,拜託你了CUVEE!(卡蜜兒死掉後再次慘叫) seongkae : 結果一次(開團)就可以有很好的RNG kangqui : 到底誰會給LETME低評價? 強制開團就是LETME阿 cloudtemplar : 強制開團的關鍵性原因就是(先和主播一起看主堡爆掉喊GG) seongkae : 遊戲結束了GG~ cloudtemplar : (延續剛剛的話),RULER剎雅沒有大阿,這樣的話(RNG)就那樣直接上來抓了,在CUVEE在邊線的時候,對面也有一點爆掉的感覺,就直接果斷開團把遊戲貫穿了~ -- Sent from my Windows -- ※ 發信站: 批踢踢實業坊(ptt.cc), 來自: 114.25.183.3 ※ 文章網址: https://www.ptt.cc/bbs/LoL/M.1539274165.A.371.html
1Fgve50714: 用心推 10/12 00:10
2FSpiceKey: cloudtemplar : RRRRRRRRRRRRRRRRRRR 10/12 00:10
3Filove640: 聽力大師 10/12 00:11
4FChowDerLu: 最後的舉局~ 才是本體 10/12 00:11
5Fpiyo0604: 好猛喔 10/12 00:11
6Fjustinxue: 原來哀號的是CT哈哈 10/12 00:11
7FCchild: RRRRRRRRRR GG~~ 10/12 00:12
8Fx4068: 真的好想贏中國rrrrrrrrrrrrrrrr~ 10/12 00:12
9FCchild: 韓語聽力大師 好強 推個 10/12 00:13
10Fzjk4451: 蠻喜歡韓國播報氣氛的 有點像足球 10/12 00:13
11Fpoboq0002: 他有沒有哭著大喊 ruler倒了 10/12 00:13
12Fpiyo0604: 補推 10/12 00:14
13Feqwer: 強 10/12 00:14
14Fqk3380888: 原來是甜不辣叫的喔XDDD 10/12 00:15
15Fbiger0502: 真心喜歡看韓國台 10/12 00:15
16Fa3221715: 有點猛 10/12 00:16
17Floveqq0910: 推 10/12 00:17
18Ftw15: 推 10/12 00:18
19Fxerioa044438: 推翻譯 10/12 00:19
20Fubiqui: 猛xd 10/12 00:19
21Ftsainalunba4: 推 10/12 00:20
22FQuietlake: 推 10/12 00:21
23Fgiraffegood: 推 10/12 00:25
24Fhoe1101: 甜不辣想到當初那個把你吸回來的球了嗎 10/12 00:26
25Flunguai: 推 10/12 00:33
26Fholices: 甜不辣真的很好笑 10/12 00:38
27Fb605152000: 推 10/12 00:38
28Fqazwsx855193: 用心推爆 10/12 00:38
29Fchirenkevin: 厲害 推 10/12 00:42
30Fck2oliver5: 笑死輸了跟世界末日一樣 10/12 00:46
31Fkinomon: 感謝翻譯 10/12 00:46
32FRinHizakura: 覺得rng真的很會抓空窗 想到之前馬爾抓到沒水銀強 10/12 00:48
33FRinHizakura: 開那場 10/12 00:48
34Fgunlinuu: 謝翻譯 10/12 01:06
35Faglet: CUVEE念起來好像哭北 10/12 01:48
36Fphilip81501: CT你管上也很多幫韓國隊講話的影片 真的愛國 10/12 02:04
37Fkelvin0004: 推翻譯 10/12 03:08
38Fdarkhouse: 覺得rng很會抓空窗+1 10/12 08:09
39Filovekanina: 韓語聽力考試欸 10/12 08:29
40FOUIUO: 推 10/12 08:49
回到 英雄聯盟 看板